OKCSL LKKU-LKPR

Flight info

Callsign OKCSL
Flight time 0h 37m
Altitude 8000
Route BNO L726 VLM
Aircraft TBM9/L-SDFGRWY/S

Departure

Time 2026-04-25 06:54
Airport Kunovice Airport (LKKU)

Arrival

Time 2026-04-25 07:31
Airport Václav Havel Airport Prague (LKPR)
Time Latitude Longitude Altitude Speed Heading
2026-04-25 06:39 49.03780 17.45445 583 ft 0 kts 81°
2026-04-25 06:49 49.03781 17.45455 583 ft 5 kts 84°
2026-04-25 06:49 49.03759 17.45485 584 ft 2 kts 182°
2026-04-25 06:49 49.03745 17.45468 585 ft 7 kts 251°
2026-04-25 06:50 49.03736 17.45366 584 ft 13 kts 262°
2026-04-25 06:50 49.03727 17.45238 583 ft 10 kts 264°
2026-04-25 06:50 49.03720 17.45133 583 ft 12 kts 262°
2026-04-25 06:50 49.03709 17.45001 583 ft 12 kts 263°
2026-04-25 06:51 49.03701 17.44873 583 ft 15 kts 266°
2026-04-25 06:51 49.03707 17.44713 583 ft 13 kts 292°
2026-04-25 06:51 49.03732 17.44622 584 ft 5 kts 295°
2026-04-25 06:51 49.03736 17.44607 585 ft 0 kts 293°
2026-04-25 06:52 49.03743 17.44586 585 ft 8 kts 295°
2026-04-25 06:52 49.03736 17.44554 586 ft 0 kts 209°
2026-04-25 06:53 49.03671 17.44506 585 ft 36 kts 206°
2026-04-25 06:53 49.03264 17.44213 580 ft 92 kts 205°
2026-04-25 06:53 49.02596 17.43753 834 ft 112 kts 205°
2026-04-25 06:53 49.01844 17.43219 1175 ft 129 kts 206°
2026-04-25 06:54 49.01043 17.42628 1766 ft 127 kts 208°
2026-04-25 06:54 49.00238 17.42042 2286 ft 130 kts 209°
2026-04-25 06:54 48.99408 17.41441 2815 ft 133 kts 211°
2026-04-25 06:54 48.98566 17.40841 3391 ft 135 kts 212°
2026-04-25 06:55 48.97751 17.40187 3947 ft 131 kts 229°
2026-04-25 06:55 48.97440 17.39034 4490 ft 117 kts 276°
2026-04-25 06:55 48.97590 17.37846 5011 ft 114 kts 296°
2026-04-25 06:55 48.97915 17.36747 5510 ft 114 kts 295°
2026-04-25 06:56 48.98217 17.35625 6049 ft 114 kts 296°
2026-04-25 06:56 48.98516 17.34498 6559 ft 115 kts 296°
2026-04-25 06:56 48.98812 17.33365 7024 ft 116 kts 296°
2026-04-25 06:56 48.99110 17.32221 7498 ft 117 kts 296°
2026-04-25 06:57 48.99407 17.31063 7968 ft 118 kts 296°
2026-04-25 06:57 48.99747 17.29770 8077 ft 147 kts 296°
2026-04-25 06:57 49.00171 17.28165 8082 ft 178 kts 295°
2026-04-25 06:57 49.00655 17.26290 8091 ft 202 kts 294°
2026-04-25 06:58 49.01181 17.24209 8080 ft 218 kts 294°
2026-04-25 06:58 49.01742 17.22002 8078 ft 228 kts 294°
2026-04-25 06:58 49.02326 17.19710 8081 ft 235 kts 294°
2026-04-25 06:58 49.02920 17.17370 8074 ft 238 kts 294°
2026-04-25 06:59 49.03521 17.15007 8075 ft 240 kts 294°
2026-04-25 06:59 49.04123 17.12630 8073 ft 241 kts 294°
2026-04-25 06:59 49.04720 17.10268 8072 ft 242 kts 294°
2026-04-25 06:59 49.05326 17.07873 8075 ft 243 kts 294°
2026-04-25 07:00 49.05937 17.05463 8072 ft 244 kts 294°
2026-04-25 07:00 49.06549 17.03054 8072 ft 244 kts 294°
2026-04-25 07:00 49.07159 17.00631 8073 ft 245 kts 294°
2026-04-25 07:00 49.07770 16.98203 8064 ft 245 kts 294°
2026-04-25 07:01 49.08382 16.95769 8069 ft 246 kts 294°
2026-04-25 07:01 49.08995 16.93337 8065 ft 246 kts 294°
2026-04-25 07:01 49.09609 16.90897 8072 ft 246 kts 294°
2026-04-25 07:01 49.10224 16.88453 8064 ft 247 kts 294°
2026-04-25 07:02 49.10840 16.85996 8074 ft 247 kts 294°
2026-04-25 07:02 49.11455 16.83541 8071 ft 248 kts 294°
2026-04-25 07:02 49.12068 16.81084 8085 ft 248 kts 294°
2026-04-25 07:02 49.12684 16.78626 8069 ft 248 kts 294°
2026-04-25 07:03 49.13298 16.76165 8075 ft 247 kts 294°
2026-04-25 07:03 49.13903 16.73741 8070 ft 247 kts 293°
2026-04-25 07:03 49.14514 16.71288 8067 ft 247 kts 294°
2026-04-25 07:03 49.15150 16.68853 8076 ft 246 kts 298°
2026-04-25 07:04 49.15977 16.66571 8082 ft 245 kts 301°
2026-04-25 07:04 49.16776 16.64265 8077 ft 246 kts 300°
2026-04-25 07:04 49.17568 16.61953 8075 ft 246 kts 300°
2026-04-25 07:04 49.18373 16.59652 8069 ft 245 kts 300°
2026-04-25 07:05 49.19178 16.57346 8067 ft 246 kts 300°
2026-04-25 07:05 49.19985 16.55037 8066 ft 246 kts 300°
2026-04-25 07:05 49.20787 16.52722 8064 ft 247 kts 300°
2026-04-25 07:05 49.21593 16.50397 8063 ft 247 kts 300°
2026-04-25 07:06 49.22399 16.48070 8041 ft 248 kts 301°
2026-04-25 07:06 49.23210 16.45744 8046 ft 248 kts 300°
2026-04-25 07:06 49.24020 16.43413 8050 ft 248 kts 300°
2026-04-25 07:06 49.24832 16.41076 8058 ft 248 kts 300°
2026-04-25 07:07 49.25630 16.38743 8058 ft 247 kts 300°
2026-04-25 07:07 49.26435 16.36411 8045 ft 248 kts 300°
2026-04-25 07:07 49.27242 16.34074 8041 ft 248 kts 300°
2026-04-25 07:07 49.28050 16.31747 8040 ft 247 kts 300°
2026-04-25 07:08 49.28853 16.29413 8042 ft 248 kts 300°
2026-04-25 07:08 49.29648 16.27105 8049 ft 248 kts 301°
2026-04-25 07:08 49.30464 16.24736 8047 ft 248 kts 300°
2026-04-25 07:08 49.31267 16.22398 8046 ft 248 kts 300°
2026-04-25 07:09 49.32078 16.20061 8029 ft 248 kts 301°
2026-04-25 07:09 49.32887 16.17730 8037 ft 248 kts 300°
2026-04-25 07:09 49.33689 16.15401 8031 ft 247 kts 301°
2026-04-25 07:09 49.34492 16.13074 8031 ft 247 kts 300°
2026-04-25 07:10 49.35289 16.10772 8026 ft 247 kts 300°
2026-04-25 07:10 49.36092 16.08441 8032 ft 247 kts 300°
2026-04-25 07:10 49.36897 16.06100 8026 ft 247 kts 300°
2026-04-25 07:10 49.37704 16.03764 8032 ft 248 kts 300°
2026-04-25 07:11 49.38507 16.01423 8032 ft 248 kts 300°
2026-04-25 07:11 49.39308 15.99085 8026 ft 247 kts 300°
2026-04-25 07:11 49.40109 15.96749 8036 ft 247 kts 301°
2026-04-25 07:11 49.40913 15.94410 8030 ft 247 kts 300°
2026-04-25 07:12 49.41713 15.92074 8023 ft 247 kts 300°
2026-04-25 07:12 49.43308 15.87411 8027 ft 247 kts 300°
2026-04-25 07:12 49.44097 15.85101 8030 ft 246 kts 300°
2026-04-25 07:13 49.44889 15.82773 8030 ft 246 kts 300°
2026-04-25 07:13 49.45682 15.80445 8025 ft 246 kts 300°
2026-04-25 07:13 49.46485 15.78110 8029 ft 247 kts 302°
2026-04-25 07:13 49.47369 15.75851 8025 ft 247 kts 304°
2026-04-25 07:14 49.48261 15.73593 8025 ft 247 kts 303°
2026-04-25 07:14 49.49146 15.71321 8026 ft 248 kts 303°
2026-04-25 07:14 49.50031 15.69049 8029 ft 248 kts 303°
2026-04-25 07:14 49.50918 15.66776 8025 ft 248 kts 303°
2026-04-25 07:15 49.51804 15.64502 8025 ft 248 kts 303°
2026-04-25 07:15 49.52692 15.62224 8034 ft 248 kts 303°
2026-04-25 07:15 49.53576 15.59953 8026 ft 248 kts 303°
2026-04-25 07:15 49.54463 15.57672 8034 ft 248 kts 303°
2026-04-25 07:16 49.55349 15.55394 8029 ft 248 kts 303°
2026-04-25 07:16 49.56233 15.53112 8038 ft 248 kts 303°
2026-04-25 07:16 49.57117 15.50830 8028 ft 248 kts 303°
2026-04-25 07:16 49.58005 15.48544 8030 ft 248 kts 303°
2026-04-25 07:17 49.58888 15.46261 8028 ft 248 kts 303°
2026-04-25 07:17 49.59761 15.44003 8027 ft 248 kts 303°
2026-04-25 07:17 49.60646 15.41719 8028 ft 249 kts 303°
2026-04-25 07:17 49.61536 15.39414 8033 ft 249 kts 303°
2026-04-25 07:18 49.62422 15.37115 8041 ft 249 kts 303°
2026-04-25 07:18 49.63306 15.34823 8039 ft 248 kts 303°
2026-04-25 07:18 49.64187 15.32534 8042 ft 247 kts 303°
2026-04-25 07:18 49.65066 15.30251 8044 ft 248 kts 302°
2026-04-25 07:19 49.65946 15.27962 8039 ft 248 kts 303°
2026-04-25 07:19 49.66822 15.25674 8047 ft 247 kts 302°
2026-04-25 07:19 49.67702 15.23389 8044 ft 247 kts 303°
2026-04-25 07:19 49.68577 15.21108 8041 ft 247 kts 303°
2026-04-25 07:20 49.69451 15.18825 8039 ft 247 kts 302°
2026-04-25 07:20 49.70328 15.16536 8038 ft 248 kts 302°
2026-04-25 07:20 49.71190 15.14274 8038 ft 248 kts 302°
2026-04-25 07:20 49.72078 15.11953 8039 ft 248 kts 302°
2026-04-25 07:21 49.72945 15.09687 8041 ft 248 kts 303°
2026-04-25 07:21 49.73821 15.07390 8043 ft 248 kts 302°
2026-04-25 07:21 49.74691 15.05092 8032 ft 248 kts 302°
2026-04-25 07:21 49.75570 15.02795 8027 ft 248 kts 302°
2026-04-25 07:22 49.76447 15.00501 8033 ft 248 kts 303°
2026-04-25 07:22 49.77326 14.98198 8028 ft 249 kts 302°
2026-04-25 07:22 49.78203 14.95840 7778 ft 257 kts 302°
2026-04-25 07:22 49.79135 14.93428 7446 ft 264 kts 303°
2026-04-25 07:23 49.80081 14.90979 7102 ft 265 kts 302°
2026-04-25 07:23 49.81007 14.88498 6743 ft 267 kts 301°
2026-04-25 07:23 49.81930 14.86014 6389 ft 266 kts 302°
2026-04-25 07:23 49.82868 14.83554 6023 ft 264 kts 302°
2026-04-25 07:24 49.83805 14.81093 5676 ft 266 kts 302°
2026-04-25 07:24 49.84743 14.78606 5322 ft 268 kts 301°
2026-04-25 07:24 49.85669 14.76136 4973 ft 269 kts 302°
2026-04-25 07:24 49.86785 14.73855 4617 ft 263 kts 310°
2026-04-25 07:25 49.87914 14.71614 4252 ft 264 kts 307°
2026-04-25 07:25 49.88985 14.69309 4000 ft 262 kts 307°
2026-04-25 07:25 49.90095 14.67117 3971 ft 254 kts 309°
2026-04-25 07:25 49.91158 14.64980 3986 ft 248 kts 306°
2026-04-25 07:26 49.92174 14.62827 3986 ft 246 kts 307°
2026-04-25 07:26 49.93026 14.61122 3996 ft 244 kts 308°
2026-04-25 07:26 49.94051 14.59036 3990 ft 242 kts 307°
2026-04-25 07:26 49.95071 14.56954 3995 ft 243 kts 307°
2026-04-25 07:27 49.96087 14.54855 4008 ft 244 kts 307°
2026-04-25 07:27 49.97116 14.52757 4004 ft 244 kts 308°
2026-04-25 07:27 49.98127 14.50692 4006 ft 243 kts 307°
2026-04-25 07:27 49.99162 14.48570 4003 ft 243 kts 308°
2026-04-25 07:28 50.00175 14.46513 4005 ft 242 kts 307°
2026-04-25 07:28 50.01194 14.44393 3838 ft 248 kts 307°
2026-04-25 07:28 50.02249 14.42222 3522 ft 254 kts 308°
2026-04-25 07:28 50.03323 14.40019 3173 ft 258 kts 306°
2026-04-25 07:29 50.04400 14.37775 2816 ft 258 kts 306°
2026-04-25 07:29 50.05476 14.35542 2467 ft 250 kts 307°
2026-04-25 07:29 50.06462 14.33549 2144 ft 216 kts 306°
2026-04-25 07:29 50.07293 14.31805 1862 ft 189 kts 304°
2026-04-25 07:30 50.08016 14.30298 1631 ft 157 kts 304°
2026-04-25 07:30 50.08533 14.29243 1456 ft 97 kts 302°
2026-04-25 07:30 50.08904 14.28457 1304 ft 88 kts 303°
2026-04-25 07:30 50.09244 14.27753 1207 ft 69 kts 303°
2026-04-25 07:31 50.09395 14.27453 1205 ft 12 kts 329°
2026-04-25 07:31 50.09472 14.27488 1206 ft 15 kts 35°
2026-04-25 07:31 50.09566 14.27597 1207 ft 18 kts 36°
2026-04-25 07:31 50.09678 14.27730 1203 ft 22 kts 49°
2026-04-25 07:32 50.09714 14.27956 1207 ft 20 kts 78°
2026-04-25 07:32 50.09743 14.28180 1207 ft 22 kts 78°
2026-04-25 07:32 50.09764 14.28333 1207 ft 21 kts 77°
2026-04-25 07:32 50.09789 14.28446 1207 ft 8 kts 34°
2026-04-25 07:33 50.09852 14.28444 1207 ft 10 kts 346°
2026-04-25 07:33 50.09885 14.28486 1207 ft 6 kts 81°
2026-04-25 07:33 50.09855 14.28516 1207 ft 6 kts 168°
2026-04-25 07:33 50.09836 14.28522 1207 ft 0 kts 169°
2026-04-25 07:34 50.09832 14.28523 1207 ft 1 kts 169°
2026-04-25 07:34 50.09831 14.28523 1207 ft 0 kts 169°